Tracking 28081 objects as of 27-Sep-2023
HD Live streaming from Space Station
objects crossing your sky now

OBJECT B

Track OBJECT B now!
10-day predictions


NORAD ID: 44487
Int'l Code: 2019-052B
Perigee: 500.7 km
Apogee: 526.2 km
Inclination: 97.5 °
Period: 94.7 minutes
Semi major axis: 6884 km
RCS: Unknown
Launch date: August 17, 2019
Source: People's Republic of China (PRC)
Launch site: Jiuquan Satellite Launch Center, China (JSC)
Your satellite tracking list
Your tracking list is empty




NASA's NSSDC Master Catalog

Two Line Element Set (TLE):
1 44487U 19052B   23270.09631788  .00021483  00000-0  99832-3 0  9992
2 44487  97.4501 338.8555 0018549 139.0786 221.1845 15.19850663226673
Source of the keplerian elements: AFSPC